Simultaneous Nadir Overpasses (SNOs) Predictions

Prediction of SNOs between NOAA-20 and METOP-B Satellite Orbit:

Table of predicted SNOs for the next 14.0 days since TLE Epoch: 3/25/2022
Index Date (NOAA-20) Time (NOAA-20) Lat,Lon (NOAA-20) SZA (NOAA-20 ) Date (METOP-B) Time (METOP-B) Lat,Lon (METOP-B) SZA (METOP-B ) Distance(km) Time Diff (sec)
1 04/07/2022 07:56:26 73.57, 50.97 66.90 04/07/2022 07:57:31 73.51, 54.11 66.68 99.08 65
2 04/07/2022 08:47:08 -73.45,-141.46 113.24 04/07/2022 08:48:15 -73.40,-138.80 113.43 84.46 67
3 04/07/2022 09:37:50 73.27, 26.27 66.55 04/07/2022 09:38:59 73.18, 28.05 66.36 57.78 69
4 04/07/2022 10:28:32 -73.16,-166.17 113.59 04/07/2022 10:29:43 -73.08,-164.85 113.75 43.39 71
5 04/07/2022 11:19:14 72.97, 1.55 66.19 04/07/2022 11:20:26 72.91, 2.12 66.09 19.70 72
6 04/07/2022 12:09:56 -72.86, 169.10 113.95 04/07/2022 12:11:10 -72.81, 169.24 114.02 6.88 74
7 04/07/2022 13:00:40 72.77, -23.40 65.95 04/07/2022 13:01:50 72.79, -23.47 65.96 3.28 70
8 04/07/2022 13:51:25 -72.81, 143.83 114.03 04/07/2022 13:52:32 -72.79, 143.85 114.06 2.38 67
9 04/07/2022 14:42:10 72.77, -48.78 65.92 04/07/2022 14:43:12 72.77, -48.85 65.91 2.43 62
10 04/07/2022 15:32:54 -72.76, 118.56 114.11 04/07/2022 15:33:54 -72.77, 118.47 114.11 2.86 60
11 04/07/2022 16:23:40 72.78, -74.16 65.90 04/07/2022 16:24:33 72.80, -74.13 65.91 3.06 53
12 04/07/2022 17:14:24 -72.77, 93.18 114.13 04/07/2022 17:15:16 -72.75, 93.09 114.15 3.22 52
13 04/07/2022 18:05:10 72.78, -99.54 65.88 04/07/2022 18:05:55 72.78, -99.51 65.87 1.02 45
14 04/07/2022 18:55:54 -72.77, 67.80 114.15 04/07/2022 18:56:37 -72.78, 67.82 114.15 1.62 43
15 04/07/2022 19:46:40 72.78,-124.92 65.85 04/07/2022 19:47:17 72.76,-124.89 65.82 2.33 37
16 04/07/2022 20:37:24 -72.77, 42.42 114.18 04/07/2022 20:37:59 -72.76, 42.43 114.19 1.18 35
17 04/07/2022 21:28:09 72.73,-150.19 65.77 04/07/2022 21:28:39 72.74,-150.27 65.78 2.80 30
18 04/07/2022 22:18:54 -72.77, 17.04 114.20 04/07/2022 22:19:21 -72.74, 17.05 114.24 3.57 27
19 04/07/2022 23:09:39 72.73,-175.57 65.75 04/07/2022 23:10:01 72.72,-175.66 65.73 3.09 22
20 04/08/2022 00:00:23 -72.73, -8.24 114.28 04/08/2022 00:00:43 -72.72, -8.33 114.28 3.00 20
21 04/08/2022 00:51:09 72.74, 159.05 65.72 04/08/2022 00:51:22 72.75, 159.07 65.74 1.75 13
22 04/08/2022 01:41:53 -72.73, -33.62 114.30 04/08/2022 01:42:04 -72.75, -33.60 114.28 2.74 11
23 04/08/2022 02:32:38 72.74, 133.67 65.70 04/08/2022 02:32:43 72.73, 133.69 65.69 1.17 5



Historial Predications of SNOs between NOAA-20 and METOP-B
